Stündliche Wetter Çaykara

Heute, 19 Januar, Dienstag

Zeit Temperatur Niederschläge Wind Luftdruck Luftfeuchtigkeit
00:00 -10°C° 0.9 mm 2 m/S 626 mmHg 90%
01:00 -12°C° 0.5 mm 2 m/S 626 mmHg 88%
02:00 -12°C° 0.5 mm 2 m/S 626 mmHg 87%
03:00 -13°C° 0.5 mm 2 m/S 626 mmHg 85%
04:00 -13°C° 0.3 mm 2 m/S 626 mmHg 84%
05:00 -13°C° 0.3 mm 2 m/S 626 mmHg 84%
06:00 -13°C° 0.3 mm 2 m/S 626 mmHg 83%
07:00 -11°C° 0.1 mm 1 m/S 626 mmHg 82%
08:00 -10°C° 0.1 mm 1 m/S 627 mmHg 80%
09:00 -10°C° 0.1 mm 1 m/S 627 mmHg 79%
10:00 -9°C° 0.1 mm 1 m/S 627 mmHg 80%
11:00 -8°C° 0.1 mm 1 m/S 627 mmHg 82%
12:00 -7°C° 0.1 mm 1 m/S 627 mmHg 83%
13:00 -8°C° 0.2 mm 2 m/S 627 mmHg 83%
14:00 -8°C° 0.2 mm 2 m/S 626 mmHg 84%
15:00 -8°C° 0.2 mm 2 m/S 626 mmHg 85%
16:00 -10°C° 0.1 mm 2 m/S 626 mmHg 86%
17:00 -10°C° 0.1 mm 1 m/S 626 mmHg 87%
18:00 -11°C° 0.1 mm 1 m/S 626 mmHg 89%
19:00 -12°C° 0 mm 1 m/S 626 mmHg 86%
20:00 -14°C° 0 mm 2 m/S 626 mmHg 83%
21:00 -15°C° 0 mm 2 m/S 626 mmHg 80%
22:00 -15°C° 0 mm 2 m/S 626 mmHg 80%
23:00 -15°C° 0 mm 2 m/S 626 mmHg 80%

Morgen, 20 Januar, Mittwoch

Zeit Temperatur Niederschläge Wind Luftdruck Luftfeuchtigkeit
00:00 -15°C° 0 mm 2 m/S 626 mmHg 81%
01:00 -14°C° 0.1 mm 2 m/S 626 mmHg 82%
02:00 -14°C° 0.1 mm 2 m/S 626 mmHg 82%
03:00 -14°C° 0.1 mm 2 m/S 626 mmHg 83%
04:00 -14°C° 0 mm 2 m/S 626 mmHg 84%
05:00 -14°C° 0 mm 2 m/S 626 mmHg 85%
06:00 -14°C° 0 mm 2 m/S 627 mmHg 86%
07:00 -14°C° 0.1 mm 2 m/S 627 mmHg 87%
08:00 -13°C° 0.1 mm 2 m/S 627 mmHg 88%
09:00 -13°C° 0.1 mm 2 m/S 628 mmHg 90%
10:00 -12°C° 0.2 mm 2 m/S 628 mmHg 89%
11:00 -10°C° 0.2 mm 2 m/S 629 mmHg 88%
12:00 -9°C° 0.2 mm 2 m/S 629 mmHg 88%
13:00 -9°C° 0.4 mm 2 m/S 629 mmHg 90%
14:00 -9°C° 0.4 mm 2 m/S 629 mmHg 92%
15:00 -10°C° 0.4 mm 3 m/S 629 mmHg 95%
16:00 -10°C° 1.2 mm 3 m/S 629 mmHg 95%
17:00 -12°C° 1.2 mm 3 m/S 630 mmHg 95%
18:00 -10°C° 1.2 mm 2 m/S 630 mmHg 95%
19:00 -10°C° 1.3 mm 2 m/S 630 mmHg 95%
20:00 -10°C° 1.3 mm 2 m/S 631 mmHg 94%
21:00 -10°C° 1.3 mm 2 m/S 631 mmHg 94%
22:00 -12°C° 0.6 mm 2 m/S 631 mmHg 93%
23:00 -12°C° 0.6 mm 2 m/S 632 mmHg 92%

übermorgen, 21 Januar, Donnerstag

Zeit Temperatur Niederschläge Wind Luftdruck Luftfeuchtigkeit
00:00 -12°C° 0.6 mm 2 m/S 632 mmHg 91%
01:00 -13°C° 0.1 mm 2 m/S 632 mmHg 90%
02:00 -13°C° 0.1 mm 2 m/S 632 mmHg 89%
03:00 -11°C° 0.1 mm 1 m/S 632 mmHg 88%
04:00 -13°C° 0 mm 2 m/S 632 mmHg 86%
05:00 -14°C° 0 mm 2 m/S 632 mmHg 84%
06:00 -14°C° 0 mm 2 m/S 633 mmHg 82%
07:00 -13°C° 0 mm 2 m/S 633 mmHg 81%
08:00 -13°C° 0 mm 2 m/S 634 mmHg 80%
09:00 -12°C° 0 mm 2 m/S 634 mmHg 79%
10:00 -9°C° 0 mm 1 m/S 635 mmHg 78%
11:00 -7°C° 0 mm 1 m/S 635 mmHg 77%
12:00 -6°C° 0 mm 1 m/S 636 mmHg 76%
13:00 -6°C° 0 mm 1 m/S 636 mmHg 76%
14:00 -6°C° 0 mm 1 m/S 636 mmHg 77%
15:00 -4°C° 0 mm 1 m/S 636 mmHg 77%
16:00 -7°C° 0 mm 1 m/S 635 mmHg 76%
17:00 -9°C° 0 mm 2 m/S 635 mmHg 76%
18:00 -12°C° 0 mm 2 m/S 635 mmHg 75%
19:00 -13°C° 0 mm 3 m/S 635 mmHg 72%
20:00 -13°C° 0 mm 3 m/S 635 mmHg 69%
21:00 -14°C° 0 mm 3 m/S 635 mmHg 65%
22:00 -13°C° 0 mm 3 m/S 635 mmHg 63%
23:00 -13°C° 0 mm 3 m/S 635 mmHg 61%

22 Januar, Freitag

Zeit Temperatur Niederschläge Wind Luftdruck Luftfeuchtigkeit
00:00 -13°C° 0 mm 3 m/S 635 mmHg 59%
01:00 -13°C° 0 mm 3 m/S 635 mmHg 57%
02:00 -13°C° 0 mm 3 m/S 635 mmHg 56%
03:00 -13°C° 0 mm 3 m/S 635 mmHg 54%
04:00 -13°C° 0 mm 3 m/S 635 mmHg 52%
05:00 -12°C° 0 mm 3 m/S 635 mmHg 50%
06:00 -12°C° 0 mm 3 m/S 635 mmHg 48%
07:00 -10°C° 0 mm 3 m/S 635 mmHg 49%
08:00 -9°C° 0 mm 3 m/S 636 mmHg 50%
09:00 -9°C° 0 mm 3 m/S 636 mmHg 50%
10:00 -7°C° 0 mm 3 m/S 636 mmHg 55%
11:00 -5°C° 0 mm 2 m/S 637 mmHg 60%
12:00 -3°C° 0 mm 2 m/S 637 mmHg 65%
13:00 -3°C° 0 mm 2 m/S 636 mmHg 66%
14:00 -3°C° 0 mm 2 m/S 636 mmHg 67%
15:00 -3°C° 0 mm 2 m/S 636 mmHg 68%
16:00 -4°C° 0 mm 2 m/S 635 mmHg 62%
17:00 -6°C° 0 mm 3 m/S 635 mmHg 56%
18:00 -7°C° 0 mm 3 m/S 635 mmHg 50%
19:00 -8°C° 0 mm 4 m/S 635 mmHg 50%
20:00 -8°C° 0 mm 4 m/S 635 mmHg 50%
21:00 -8°C° 0 mm 4 m/S 635 mmHg 50%
22:00 -8°C° 0 mm 4 m/S 635 mmHg 50%
23:00 -8°C° 0 mm 4 m/S 635 mmHg 51%

23 Januar, Samstag

Zeit Temperatur Niederschläge Wind Luftdruck Luftfeuchtigkeit
00:00 -8°C° 0 mm 4 m/S 635 mmHg 52%
01:00 -8°C° 0 mm 4 m/S 635 mmHg 52%
02:00 -8°C° 0 mm 4 m/S 635 mmHg 52%
03:00 -8°C° 0 mm 4 m/S 635 mmHg 52%
04:00 -7°C° 0 mm 3 m/S 634 mmHg 51%
05:00 -7°C° 0 mm 3 m/S 634 mmHg 51%
06:00 -7°C° 0 mm 3 m/S 634 mmHg 50%
07:00 -7°C° 0 mm 3 m/S 634 mmHg 51%
08:00 -6°C° 0 mm 3 m/S 635 mmHg 52%
09:00 -6°C° 0 mm 3 m/S 635 mmHg 53%
10:00 -4°C° 0 mm 3 m/S 635 mmHg 58%
11:00 -2°C° 0 mm 2 m/S 635 mmHg 64%
12:00 -1°C° 0 mm 2 m/S 635 mmHg 69%
13:00 -1°C° 0 mm 2 m/S 635 mmHg 70%
14:00 -1°C° 0 mm 2 m/S 634 mmHg 71%
15:00 +1°C° 0 mm 1 m/S 634 mmHg 72%
16:00 -2°C° 0 mm 2 m/S 633 mmHg 64%
17:00 -4°C° 0 mm 3 m/S 633 mmHg 56%
18:00 -5°C° 0 mm 3 m/S 632 mmHg 48%
19:00 -7°C° 0 mm 4 m/S 632 mmHg 47%
20:00 -7°C° 0 mm 4 m/S 632 mmHg 46%
21:00 -7°C° 0 mm 4 m/S 632 mmHg 46%
22:00 -7°C° 0 mm 4 m/S 632 mmHg 46%
23:00 -5°C° 0 mm 4 m/S 632 mmHg 46%

24 Januar, Sonntag

Zeit Temperatur Niederschläge Wind Luftdruck Luftfeuchtigkeit
00:00 -5°C° 0 mm 4 m/S 631 mmHg 46%
01:00 -5°C° 0 mm 4 m/S 631 mmHg 45%
02:00 -5°C° 0 mm 4 m/S 631 mmHg 45%
03:00 -5°C° 0 mm 4 m/S 631 mmHg 44%
04:00 -5°C° 0 mm 4 m/S 631 mmHg 44%
05:00 -6°C° 0 mm 5 m/S 631 mmHg 44%
06:00 -6°C° 0 mm 5 m/S 631 mmHg 44%
07:00 -6°C° 0 mm 5 m/S 631 mmHg 45%
08:00 -5°C° 0 mm 5 m/S 631 mmHg 47%
09:00 -5°C° 0 mm 5 m/S 631 mmHg 48%
10:00 -3°C° 0 mm 4 m/S 632 mmHg 52%
11:00 -2°C° 0 mm 4 m/S 632 mmHg 56%
12:00 -1°C° 0 mm 4 m/S 632 mmHg 59%
13:00 0°C° 0 mm 3 m/S 632 mmHg 60%
14:00 0°C° 0 mm 3 m/S 632 mmHg 61%
15:00 0°C° 0 mm 3 m/S 631 mmHg 61%
16:00 -1°C° 0 mm 3 m/S 631 mmHg 58%
17:00 -3°C° 0 mm 4 m/S 631 mmHg 54%
18:00 -4°C° 0 mm 4 m/S 631 mmHg 50%
19:00 -4°C° 0 mm 4 m/S 631 mmHg 50%
20:00 -4°C° 0 mm 4 m/S 631 mmHg 51%
21:00 -4°C° 0 mm 4 m/S 632 mmHg 51%
22:00 -5°C° 0 mm 4 m/S 632 mmHg 51%
23:00 -5°C° 0 mm 4 m/S 631 mmHg 50%
Mehr zeigen

Wir brauchen deine Erlaubnis

Meteoprog und unser Service Anbieter werden persönliche Daten aufbewahren, so wie Cookies, Geräte Bezeichnung oder ähnliche Technologien von deinem Gerät und Prozess, so wie Persönliche Daten Inhalte und Werbungen, genauso wie social Media und den Verkehr zu analysieren.

  • Aufbewahrung und/oder Zugang zu deiner Geräte Informationen.

    Cookies, Geräte Bezeichnung oder andere Informationen, können aufbewahrt oder Zugang zu deinem Gerät erhalten, für den Grund, der oben angegeben wird.

  • Personalisierte Werbung und Inhalte, Messungen, Einblick in das Publikum und Produkt Entwicklung.

    Werbungen und Inhalte können personalisiert werden, basierend auf ein Profil. Mehr Daten können besser personalisierte Werbungen und Inhalte hinzufügen. Werbung und Inhalte können gezeigt und gemessen werden. Einblicke über das Publikum, welche die Werbung gesehen haben und den Inhalt, können abgeleitet werden. So wie Daten können genutzt werden, um es zu verbessern oder die Benutzer Erfahrung zu verbessern das System und die Software.

Wenn du “Ich stimme zu” klickst, erlaubst du uns, die Cookies zu benutzen die Geräte Bezeichnung, den Web oder ähnliche Technologien zu benutzen. Deine Settings, können in deinem Gerät bei deinem Browser geändert werden.

Für den bestimmten Zweck, berechtigten Interessen beruhen darauf, mehr als auf den Inhalt. Du kannst mehr darüber in unseren Privaten und Cookie Politik lesen.